ROMMA est une association bénévole à but non lucratif. Votre soutien est indispensable : ADHERER à ROMMA ou FAIRE un DON

Voiron - (38, Isère)

Voironnais (300 m)   Longitude: 05° 35' E   Latitude: 45° 23' N Station partenaire n°109
 

Détail journalier du     <<     >>

Température Precipitation Humidité Pression Vent Dir Rafale Dir. rafale Ensol.
Heure (°C) (mm) (%) (hPa) (km/h) (km/h) (min)
01:00 9.408010247N26N0
02:00 9.308010235ENE18ENE0
03:00 8.608310234ENE19NNO0
04:00 8.108610234SE18NNO0
05:00 7.408710232ESE10ESE0
06:00 7.108810232NNE5ENE0
07:00 7.4088102303NNE0
08:00 7.708710222SE6SE0
09:00 7.408710225SE13SE0
10:00 8.108110236S16SSE0
11:00 9.307910235SE16SSE30
12:00 10.107310236SE13SE0
13:00 10.507210232SSO10SSE0
14:00 10.10.27810221ESE6NE0
15:00 10.607410223ENE15N0
16:00 10.207810226N16NE0
17:00 10.707310234NE13ENE0
18:00 10.707310232NE13NNO60
19:00 10.007810242N10NNO0
20:00 9.508010241NE6SE0
21:00 9.008010242O6SSE0
22:00 8.808110242ESE10N0
23:00 8.208310242E5E0
minuit 8.508210242E5NNO0

Graphique du 02-03-2019

 

Serveur OMMA